Printer-friendly version

IAU Minor Planet Center

Minor Planet Center

MPEC 2006-X69 : 2006 XA3

The following Minor Planet Electronic Circular may be linked-to from your own Web pages, but must not otherwise be redistributed electronically.


Read MPEC 2006-X68 Read MPEC 2006-X70


M.P.E.C. 2006-X69                                Issued 2006 Dec. 14, 18:53 UT

     The Minor Planet Electronic Circulars contain information on unusual
         minor planets and routine data on comets.  They are published
   on behalf of Commission 20 of the International Astronomical Union by the
          Minor Planet Center, Smithsonian Astrophysical Observatory,
                          Cambridge, MA 02138, U.S.A.

             Prepared using the Tamkin Foundation Computer Network

                              MPC@CFA.HARVARD.EDU
          URL http://cfa-www.harvard.edu/iau/mpc.html  ISSN 1523-6714

                                   2006 XA3

Observations:
     K06X03A* C2006 12 13.40411 08 06 02.16 +17 40 45.0          20.4 V EX069G96
     K06X03A  C2006 12 13.40965 08 06 00.10 +17 41 29.9          20.2 V EX069G96
     K06X03A  C2006 12 13.41522 08 05 58.09 +17 42 15.2          20.2 V EX069G96
     K06X03A  C2006 12 13.42090 08 05 56.00 +17 43 00.8          20.4 V EX069G96
     K06X03A  C2006 12 13.45931 08 05 42.10 +17 48 08.1          20.0 V EX069G96
     K06X03A  C2006 12 13.45984 08 05 41.82 +17 48 12.9          20.4 V EX069G96
     K06X03A  C2006 12 13.46037 08 05 41.64 +17 48 17.0          20.4 V EX069G96
     K06X03A  C2006 12 13.46090 08 05 41.42 +17 48 21.3          20.8 V EX069G96
     K06X03A  C2006 12 13.50165 08 05 26.88 +17 53 42.6          20.4 V EX069G96
     K06X03A  C2006 12 13.50232 08 05 26.70 +17 53 47.9          20.4 V EX069G96
     K06X03A  C2006 12 13.50296 08 05 26.41 +17 53 52.9          20.5 V EX069G96
     K06X03A  C2006 12 13.50362 08 05 26.16 +17 53 58.2          20.6 V EX069G96
     K06X03A  C2006 12 14.41698 08 01 11.13 +19 43 56.3          20.4 V EX069G96
     K06X03A  C2006 12 14.41751 08 01 10.99 +19 44 00.3          19.7 V EX069G96
     K06X03A  C2006 12 14.41806 08 01 10.81 +19 44 03.3          21.7 V EX069G96
     K06X03A  C2006 12 14.41858 08 01 10.66 +19 44 06.3          21.0 V EX069G96
     K06X03A  C2006 12 14.41942 08 01 10.34 +19 44 12.6          21.7 V EX069G96
     K06X03A  C2006 12 14.41995 08 01 10.20 +19 44 16.5          20.9 V EX069G96
     K06X03A  C2006 12 14.42049 08 01 09.98 +19 44 19.8          21.8 V EX069G96
     K06X03A  C2006 12 14.42103 08 01 09.87 +19 44 22.8          20.6 V EX069G96

Observer details:
G96 Mt. Lemmon Survey.  Observer R. E. Hill.  Measurers E. C. Beshore,
    E. J. Christensen, G. J. Garradd, A. R. Gibbs, A. D. Grauer, R. E. Hill,
    R. A. Kowalski, S. M. Larson, R. H. McNaught.  1.5-m reflector + CCD.

Orbital elements:
2006 XA3                                                 Earth MOID = 0.0146 AU
Epoch 2007 Apr. 10.0 TT = JDT 2454200.5                 MPC
M  42.21025              (2000.0)            P               Q
n   0.27319848     Peri.  308.54287     +0.83170981     -0.54846265
a   2.3522521      Node    84.87881     +0.53254372     +0.74409949
e   0.6210928      Incl.    4.97062     +0.15702225     +0.38145075
P   3.61           H   25.1           G   0.15           U   8
Residuals in seconds of arc
061213 G96  0.1+  0.2+    061213 G96  0.4-  0.1-    061214 G96  0.3+  0.3-
061213 G96  0.3-  0.1+    061213 G96  0.1-  0.1+    061214 G96  0.5+  0.7-
061213 G96  0.2+  0.2+    061213 G96  0.7+  0.1+    061214 G96  0.3-  0.1+
061213 G96  0.0   0.1-    061213 G96  0.2-  0.1+    061214 G96  0.0   0.6+
061213 G96  1.1+  0.6-    061213 G96  0.4-  0.3+    061214 G96  0.7-  0.3+
061213 G96  0.2-  0.0     061214 G96  0.0   0.2-    061214 G96  0.2+  0.2-
061213 G96  0.0   0.1-    061214 G96  0.4+  0.3+

Ephemeris:
2006 XA3                 a,e,i = 2.35, 0.62, 5                   q = 0.8913
Date    TT    R. A. (2000) Decl.     Delta      r     Elong.  Phase     V
2006 12 11    08 21.87   +10 24.0    0.0441   1.015   132.8    45.4    20.1
2006 12 13    08 08.20   +16 44.2    0.0565   1.028   140.0    38.0    20.4
2006 12 15    07 58.74   +20 44.5    0.0695   1.042   145.2    32.6    20.8
2006 12 17    07 51.67   +23 27.9    0.0830   1.056   149.3    28.4    21.1
2006 12 19    07 46.08   +25 25.2    0.0967   1.071   152.7    24.9    21.3
2006 12 21    07 41.47   +26 52.7    0.111    1.086   155.7    21.9    21.6
2006 12 23    07 37.55   +27 59.8    0.125    1.101   158.5    19.1    21.8
2006 12 25    07 34.15   +28 52.3    0.140    1.116   161.0    16.7    22.0
2006 12 27    07 31.15   +29 34.0    0.154    1.132   163.3    14.5    22.1
2006 12 29    07 28.48   +30 07.3    0.170    1.148   165.4    12.5    22.3
2006 12 31    07 26.08   +30 34.0    0.185    1.164   167.2    10.8    22.4

Kyle E. Smalley              (C) Copyright 2006 MPC           M.P.E.C. 2006-X69

Read MPEC 2006-X68 Read MPEC 2006-X70


Our Web policy. Index to the CBAT/MPC/ICQ pages.


Valid HTML 4.01!